Location: ??????
(55.7522°N, 37.6156°E)
Time: 16:57:04
(UTC+00:00)

Cosmos 1707 Rocket - Pass Details

Date: 14 June 2025
Orbit: 599 x 624 km, 82.5° (Epoch: 13 July)

Event Time Altitude Azimuth Distance (km) Brightness Sun altitude
Exits shadow 19:51:02 11° 154° (SSE) 1,907 5.4 -8.2°
Maximum altitude 19:54:48 34° 91° (E) 1,008 4.5 -8.4°
Drops below altitude 10° 19:58:41 10° 27° (NNE) 1,956 6.8 -8.6°
Sets 20:01:03 0° 18° (NNE) 2,864 7.9 -8.7°
